Time,TemperatureF,DewpointF,PressureIn,WindDirection,WindDirectionDegrees,WindSpeedMPH,WindSpeedGustMPH,Humidity,HourlyPrecipIn,Conditions,Clouds,dailyrainin,SoftwareType,DateUTC
2013-02-22 00:00:00,17.9,14.9,30.31,South,185,0.0,0.0,88,0.00,,OVC017,0.00,VWS V12.08,2013-02-22 05:00:00,
2013-02-22 00:05:00,18.0,15.1,30.31,South,185,0.0,0.0,88,0.00,,OVC017,0.00,VWS V12.08,2013-02-22 05:05:00,
2013-02-22 00:10:00,18.0,15.1,30.31,South,185,0.0,0.0,88,0.00,,OVC017,0.00,VWS V12.08,2013-02-22 05:10:00,
2013-02-22 00:15:00,18.0,15.1,30.32,South,185,0.0,0.0,88,0.00,,OVC017,0.00,VWS V12.08,2013-02-22 05:15:00,
2013-02-22 00:20:00,18.2,15.5,30.32,South,185,0.0,0.0,89,0.00,,OVC017,0.00,VWS V12.08,2013-02-22 05:20:00,
2013-02-22 00:25:00,18.2,15.5,30.32,South,185,0.0,0.0,89,0.00,,OVC017,0.00,VWS V12.08,2013-02-22 05:25:00,
2013-02-22 00:30:00,18.2,15.5,30.34,South,185,0.0,0.0,89,0.00,,OVC017,0.00,VWS V12.08,2013-02-22 05:30:00,
2013-02-22 00:35:00,18.2,15.5,30.34,South,185,0.0,0.0,89,0.00,,OVC017,0.00,VWS V12.08,2013-02-22 05:35:00,
2013-02-22 00:40:00,18.2,15.5,30.34,South,185,0.0,0.0,89,0.00,,OVC017,0.00,VWS V12.08,2013-02-22 05:40:00,
2013-02-22 00:45:00,18.2,15.5,30.34,South,185,0.0,0.0,89,0.00,,OVC019,0.00,VWS V12.08,2013-02-22 05:45:00,
2013-02-22 00:50:00,18.2,15.5,30.34,South,185,0.0,0.0,89,0.00,,OVC019,0.00,VWS V12.08,2013-02-22 05:50:00,
2013-02-22 00:55:00,18.3,15.6,30.34,South,185,0.0,0.0,89,0.00,,OVC019,0.00,VWS V12.08,2013-02-22 05:55:00,
2013-02-22 01:00:00,18.3,15.6,30.34,South,185,0.0,0.0,89,0.00,,OVC019,0.00,VWS V12.08,2013-02-22 06:00:00,
2013-02-22 01:05:00,18.3,15.6,30.34,South,185,0.0,0.0,89,0.00,,OVC019,0.00,VWS V12.08,2013-02-22 06:05:00,
2013-02-22 01:10:00,18.3,15.6,30.34,South,185,0.0,0.0,89,0.00,,OVC019,0.00,VWS V12.08,2013-02-22 06:10:00,
2013-02-22 01:15:00,18.3,15.6,30.35,South,185,0.0,0.0,89,0.00,,OVC019,0.00,VWS V12.08,2013-02-22 06:15:00,
2013-02-22 01:20:00,18.5,15.8,30.35,South,185,0.0,0.0,89,0.00,,OVC019,0.00,VWS V12.08,2013-02-22 06:20:00,
2013-02-22 01:25:00,18.5,15.8,30.35,South,185,0.0,0.0,89,0.00,,OVC019,0.00,VWS V12.08,2013-02-22 06:25:00,
2013-02-22 01:30:00,18.5,15.8,30.35,South,185,0.0,0.0,89,0.00,,OVC019,0.00,VWS V12.08,2013-02-22 06:30:00,
2013-02-22 01:35:00,18.5,15.8,30.35,East,93,1.0,1.0,89,0.00,,OVC019,0.00,VWS V12.08,2013-02-22 06:35:00,
2013-02-22 01:40:00,18.5,15.8,30.35,East,93,0.0,0.0,89,0.00,,OVC017,0.00,VWS V12.08,2013-02-22 06:40:00,
2013-02-22 01:45:00,18.5,15.8,30.35,East,93,0.0,0.0,89,0.00,,OVC017,0.00,VWS V12.08,2013-02-22 06:45:00,
2013-02-22 01:50:00,18.5,16.1,30.35,East,93,1.0,1.0,90,0.00,,OVC017,0.00,VWS V12.08,2013-02-22 06:50:00,
2013-02-22 01:55:00,18.5,15.8,30.35,East,93,0.0,0.0,89,0.00,,OVC017,0.00,VWS V12.08,2013-02-22 06:55:00,
2013-02-22 02:00:00,18.5,16.1,30.34,East,93,0.0,0.0,90,0.00,,OVC017,0.00,VWS V12.08,2013-02-22 07:00:00,
2013-02-22 02:05:00,18.5,16.1,30.34,East,93,0.0,0.0,90,0.00,,OVC017,0.00,VWS V12.08,2013-02-22 07:05:00,
2013-02-22 02:10:00,18.6,16.2,30.34,East,93,0.0,0.0,90,0.00,,OVC017,0.00,VWS V12.08,2013-02-22 07:10:00,
2013-02-22 02:15:00,18.6,16.2,30.34,East,93,0.0,0.0,90,0.00,,OVC017,0.00,VWS V12.08,2013-02-22 07:15:00,
2013-02-22 02:20:00,18.8,16.4,30.34,East,93,0.0,0.0,90,0.00,,OVC017,0.00,VWS V12.08,2013-02-22 07:20:00,
2013-02-22 02:25:00,19.0,16.8,30.34,East,93,1.0,1.0,91,0.00,,OVC017,0.00,VWS V12.08,2013-02-22 07:25:00,
2013-02-22 02:30:00,19.4,17.5,30.34,NE,40,1.0,2.0,92,0.00,,OVC017,0.00,VWS V12.08,2013-02-22 07:30:00,
2013-02-22 02:35:00,20.1,18.1,30.34,NE,52,2.0,3.0,92,0.00,,OVC017,0.00,VWS V12.08,2013-02-22 07:35:00,
2013-02-22 02:40:00,20.9,19.0,30.34,ENE,75,5.0,5.0,92,0.00,,OVC017,0.00,VWS V12.08,2013-02-22 07:40:00,
2013-02-22 02:45:00,21.3,19.1,30.33,NE,55,3.0,6.0,91,0.00,,OVC017,0.00,VWS V12.08,2013-02-22 07:45:00,
2013-02-22 02:50:00,21.8,19.1,30.33,NNE,31,1.0,6.0,89,0.00,,OVC017,0.00,VWS V12.08,2013-02-22 07:50:00,
2013-02-22 02:55:00,21.9,19.2,30.33,NE,42,3.0,5.0,89,0.00,,OVC017,0.00,VWS V12.08,2013-02-22 07:55:00,
2013-02-22 03:00:00,21.9,18.9,30.33,East,86,2.0,5.0,88,0.00,,OVC017,0.00,VWS V12.08,2013-02-22 08:00:00,
2013-02-22 03:05:00,21.9,18.6,30.33,NE,54,2.0,5.0,87,0.00,,OVC017,0.00,VWS V12.08,2013-02-22 08:05:00,
2013-02-22 03:10:00,21.9,18.6,30.33,NE,47,1.0,4.0,87,0.00,,OVC017,0.00,VWS V12.08,2013-02-22 08:10:00,
2013-02-22 03:15:00,21.9,18.6,30.33,NE,44,2.0,3.0,87,0.00,,OVC017,0.00,VWS V12.08,2013-02-22 08:15:00,
2013-02-22 03:20:00,21.8,18.5,30.33,NE,55,1.0,3.0,87,0.00,,OVC017,0.00,VWS V12.08,2013-02-22 08:20:00,
2013-02-22 03:25:00,21.8,18.5,30.33,NE,34,2.0,2.0,87,0.00,,OVC017,0.00,VWS V12.08,2013-02-22 08:25:00,
2013-02-22 03:30:00,21.6,18.3,30.32,NE,34,0.0,0.0,87,0.00,,OVC017,0.00,VWS V12.08,2013-02-22 08:30:00,
2013-02-22 03:35:00,21.5,18.2,30.32,NNE,31,1.0,2.0,87,0.00,,OVC017,0.00,VWS V12.08,2013-02-22 08:35:00,
2013-02-22 03:40:00,21.5,18.2,30.32,NE,37,0.0,2.0,87,0.00,,OVC015,0.00,VWS V12.08,2013-02-22 08:40:00,
2013-02-22 03:45:00,21.5,18.2,30.33,NE,37,1.0,2.0,87,0.00,,OVC015,0.00,VWS V12.08,2013-02-22 08:45:00,
2013-02-22 03:50:00,21.6,18.3,30.33,NE,48,2.0,4.0,87,0.00,,OVC015,0.00,VWS V12.08,2013-02-22 08:50:00,
2013-02-22 03:56:00,21.5,18.2,30.33,NE,44,2.0,2.0,87,0.00,,OVC015,0.00,VWS V12.08,2013-02-22 08:56:00,
2013-02-22 04:01:00,21.2,17.9,30.33,NE,48,1.0,2.0,87,0.00,,OVC015,0.00,VWS V12.08,2013-02-22 09:01:00,
2013-02-22 04:06:00,21.0,17.8,30.33,NE,48,0.0,0.0,87,0.00,,OVC015,0.00,VWS V12.08,2013-02-22 09:06:00,
2013-02-22 04:11:00,20.9,17.6,30.33,NE,48,0.0,0.0,87,0.00,,OVC015,0.00,VWS V12.08,2013-02-22 09:11:00,
2013-02-22 04:16:00,20.5,17.2,30.33,NE,48,0.0,2.0,87,0.00,,OVC015,0.00,VWS V12.08,2013-02-22 09:16:00,
2013-02-22 04:21:00,20.1,16.9,30.33,NE,48,0.0,0.0,87,0.00,,OVC015,0.00,VWS V12.08,2013-02-22 09:21:00,
2013-02-22 04:26:00,19.8,16.8,30.33,NE,48,0.0,0.0,88,0.00,,OVC015,0.00,VWS V12.08,2013-02-22 09:26:00,
2013-02-22 04:31:00,19.4,16.4,30.33,NE,48,0.0,0.0,88,0.00,,OVC015,0.00,VWS V12.08,2013-02-22 09:31:00,
2013-02-22 04:36:00,19.0,16.0,30.33,NE,48,0.0,0.0,88,0.00,,OVC015,0.00,VWS V12.08,2013-02-22 09:36:00,
2013-02-22 04:41:00,18.5,15.6,30.33,NE,48,0.0,0.0,88,0.00,,SCT029,0.00,VWS V12.08,2013-02-22 09:41:00,
2013-02-22 04:46:00,18.2,15.5,30.34,NE,48,0.0,0.0,89,0.00,,SCT029,0.00,VWS V12.08,2013-02-22 09:46:00,
2013-02-22 04:51:00,17.5,14.8,30.34,NE,48,0.0,0.0,89,0.00,,SCT029,0.00,VWS V12.08,2013-02-22 09:51:00,
2013-02-22 04:56:00,17.1,14.4,30.34,NE,48,0.0,0.0,89,0.00,,SCT029,0.00,VWS V12.08,2013-02-22 09:56:00,
2013-02-22 05:01:00,16.6,13.9,30.34,NE,48,0.0,0.0,89,0.00,,CLR,0.00,VWS V12.08,2013-02-22 10:01:00,
2013-02-22 05:06:00,16.1,13.7,30.34,NE,48,0.0,0.0,90,0.00,,CLR,0.00,VWS V12.08,2013-02-22 10:06:00,
2013-02-22 05:11:00,15.7,13.3,30.34,NE,48,0.0,0.0,90,0.00,,CLR,0.00,VWS V12.08,2013-02-22 10:11:00,
2013-02-22 05:16:00,15.3,13.1,30.34,NE,48,0.0,0.0,91,0.00,,CLR,0.00,VWS V12.08,2013-02-22 10:16:00,
2013-02-22 05:21:00,15.0,12.9,30.34,NE,48,1.0,1.0,91,0.00,,CLR,0.00,VWS V12.08,2013-02-22 10:21:00,
2013-02-22 05:26:00,14.5,12.4,30.34,NE,48,0.0,0.0,91,0.00,,CLR,0.00,VWS V12.08,2013-02-22 10:26:00,
2013-02-22 05:31:00,14.2,12.3,30.35,NE,48,0.0,0.0,92,0.00,,CLR,0.00,VWS V12.08,2013-02-22 10:31:00,
2013-02-22 05:36:00,13.9,12.0,30.35,NE,48,0.0,0.0,92,0.00,,CLR,0.00,VWS V12.08,2013-02-22 10:36:00,
2013-02-22 05:41:00,13.7,11.8,30.35,NE,48,0.0,0.0,92,0.00,,CLR,0.00,VWS V12.08,2013-02-22 10:41:00,
2013-02-22 05:46:00,13.4,11.5,30.36,NE,48,1.0,2.0,92,0.00,,CLR,0.00,VWS V12.08,2013-02-22 10:46:00,
2013-02-22 05:51:00,12.9,11.3,30.36,NE,48,0.0,0.0,93,0.00,,CLR,0.00,VWS V12.08,2013-02-22 10:51:00,
2013-02-22 05:56:00,12.6,11.0,30.36,NE,48,0.0,1.0,93,0.00,,CLR,0.00,VWS V12.08,2013-02-22 10:56:00,
2013-02-22 06:01:00,12.1,10.5,30.35,NE,48,0.0,0.0,93,0.00,,CLR,0.00,VWS V12.08,2013-02-22 11:01:00,
2013-02-22 06:06:00,12.0,10.4,30.35,NE,48,0.0,0.0,93,0.00,,CLR,0.00,VWS V12.08,2013-02-22 11:06:00,
2013-02-22 06:11:00,11.6,10.0,30.35,NE,48,0.0,0.0,93,0.00,,CLR,0.00,VWS V12.08,2013-02-22 11:11:00,
2013-02-22 06:16:00,11.5,9.9,30.37,NE,48,0.0,0.0,93,0.00,,CLR,0.00,VWS V12.08,2013-02-22 11:16:00,
2013-02-22 06:21:00,11.3,9.9,30.37,NE,48,0.0,0.0,94,0.00,,CLR,0.00,VWS V12.08,2013-02-22 11:21:00,
2013-02-22 06:26:00,11.3,9.9,30.37,NE,48,0.0,0.0,94,0.00,,CLR,0.00,VWS V12.08,2013-02-22 11:26:00,
2013-02-22 06:31:00,11.1,9.7,30.38,NE,48,0.0,0.0,94,0.00,,CLR,0.00,VWS V12.08,2013-02-22 11:31:00,
2013-02-22 06:36:00,11.1,9.7,30.38,NE,48,0.0,0.0,94,0.00,,CLR,0.00,VWS V12.08,2013-02-22 11:36:00,
2013-02-22 06:41:00,10.9,9.5,30.38,NE,48,0.0,0.0,94,0.00,,CLR,0.00,VWS V12.08,2013-02-22 11:41:00,
2013-02-22 06:46:00,10.8,9.4,30.40,NE,48,0.0,0.0,94,0.00,,CLR,0.00,VWS V12.08,2013-02-22 11:46:00,
2013-02-22 06:51:00,10.6,9.2,30.40,NE,48,0.0,0.0,94,0.00,,CLR,0.00,VWS V12.08,2013-02-22 11:51:00,
2013-02-22 06:56:00,10.6,9.2,30.40,NE,48,0.0,0.0,94,0.00,,CLR,0.00,VWS V12.08,2013-02-22 11:56:00,
2013-02-22 07:01:00,10.6,9.2,30.42,NE,48,0.0,0.0,94,0.00,,CLR,0.00,VWS V12.08,2013-02-22 12:01:00,
2013-02-22 07:06:00,10.6,9.2,30.42,NE,48,0.0,0.0,94,0.00,,CLR,0.00,VWS V12.08,2013-02-22 12:06:00,
2013-02-22 07:11:00,10.4,9.0,30.42,NE,48,0.0,0.0,94,0.00,,CLR,0.00,VWS V12.08,2013-02-22 12:11:00,
2013-02-22 07:16:00,10.3,8.9,30.42,NE,48,0.0,0.0,94,0.00,,CLR,0.00,VWS V12.08,2013-02-22 12:16:00,
2013-02-22 07:21:00,10.4,9.0,30.42,NE,48,0.0,0.0,94,0.00,,CLR,0.00,VWS V12.08,2013-02-22 12:21:00,
2013-02-22 07:26:00,10.4,9.0,30.42,NE,48,0.0,0.0,94,0.00,,CLR,0.00,VWS V12.08,2013-02-22 12:26:00,
2013-02-22 07:31:00,10.8,9.6,30.43,NE,48,0.0,0.0,95,0.00,,CLR,0.00,VWS V12.08,2013-02-22 12:31:00,
2013-02-22 07:36:00,11.1,9.9,30.43,NE,48,0.0,0.0,95,0.00,,CLR,0.00,VWS V12.08,2013-02-22 12:36:00,
2013-02-22 07:41:00,11.5,10.4,30.43,NE,48,0.0,0.0,95,0.00,,CLR,0.00,VWS V12.08,2013-02-22 12:41:00,
2013-02-22 07:46:00,11.6,10.4,30.44,NE,48,0.0,0.0,95,0.00,,CLR,0.00,VWS V12.08,2013-02-22 12:46:00,
2013-02-22 07:51:00,11.8,10.6,30.44,NE,48,0.0,0.0,95,0.00,,CLR,0.00,VWS V12.08,2013-02-22 12:51:00,
2013-02-22 07:56:00,12.1,10.9,30.44,NE,48,0.0,0.0,95,0.00,,CLR,0.00,VWS V12.08,2013-02-22 12:56:00,
2013-02-22 08:01:00,12.4,11.2,30.45,NE,48,0.0,0.0,95,0.00,,BKN034,0.00,VWS V12.08,2013-02-22 13:01:00,
2013-02-22 08:06:00,12.9,12.0,30.45,NE,48,0.0,0.0,96,0.00,,BKN034,0.00,VWS V12.08,2013-02-22 13:06:00,
2013-02-22 08:11:00,13.4,12.2,30.45,NE,48,0.0,0.0,95,0.00,,BKN034,0.00,VWS V12.08,2013-02-22 13:11:00,
2013-02-22 08:16:00,13.7,12.5,30.45,NE,48,0.0,0.0,95,0.00,,BKN034,0.00,VWS V12.08,2013-02-22 13:16:00,
2013-02-22 08:21:00,14.2,13.3,30.45,NE,48,1.0,1.0,96,0.00,,BKN034,0.00,VWS V12.08,2013-02-22 13:21:00,
2013-02-22 08:26:00,14.9,14.0,30.45,NE,48,0.0,0.0,96,0.00,,BKN034,0.00,VWS V12.08,2013-02-22 13:26:00,
2013-02-22 08:31:00,15.3,14.4,30.44,NE,48,2.0,2.0,96,0.00,,BKN034,0.00,VWS V12.08,2013-02-22 13:31:00,
2013-02-22 08:36:00,15.7,14.5,30.44,NE,48,1.0,2.0,95,0.00,,BKN034,0.00,VWS V12.08,2013-02-22 13:36:00,
2013-02-22 08:41:00,16.1,14.9,30.44,NE,49,3.0,3.0,95,0.00,,OVC032,0.00,VWS V12.08,2013-02-22 13:41:00,
2013-02-22 08:46:00,16.6,15.4,30.44,NE,49,2.0,3.0,95,0.00,,OVC032,0.00,VWS V12.08,2013-02-22 13:46:00,
2013-02-22 08:51:00,17.1,15.7,30.44,NE,49,3.0,3.0,94,0.00,,OVC032,0.00,VWS V12.08,2013-02-22 13:51:00,
2013-02-22 08:57:00,17.4,15.7,30.44,ENE,78,2.0,5.0,93,0.00,,OVC032,0.00,VWS V12.08,2013-02-22 13:57:00,
2013-02-22 09:02:00,17.9,16.0,30.43,East,79,3.0,3.0,92,0.00,,OVC032,0.00,VWS V12.08,2013-02-22 14:02:00,
2013-02-22 09:07:00,18.5,16.3,30.43,ENE,78,2.0,3.0,91,0.00,,OVC032,0.00,VWS V12.08,2013-02-22 14:07:00,
2013-02-22 09:12:00,19.4,17.2,30.43,ENE,78,3.0,3.0,91,0.00,,OVC032,0.00,VWS V12.08,2013-02-22 14:12:00,
2013-02-22 09:17:00,19.9,17.2,30.42,ENE,76,1.0,2.0,89,0.00,,OVC032,0.00,VWS V12.08,2013-02-22 14:17:00,
2013-02-22 09:22:00,20.5,17.5,30.42,ENE,72,2.0,3.0,88,0.00,,OVC032,0.00,VWS V12.08,2013-02-22 14:22:00,
2013-02-22 09:27:00,21.0,17.8,30.42,ENE,72,2.0,3.0,87,0.00,,OVC032,0.00,VWS V12.08,2013-02-22 14:27:00,
2013-02-22 09:32:00,21.6,18.1,30.42,ENE,72,0.0,0.0,86,0.00,,OVC032,0.00,VWS V12.08,2013-02-22 14:32:00,
2013-02-22 09:37:00,21.8,17.7,30.42,ENE,72,2.0,2.0,84,0.00,,OVC032,0.00,VWS V12.08,2013-02-22 14:37:00,
2013-02-22 09:42:00,22.1,18.3,30.42,ENE,72,1.0,2.0,85,0.00,,OVC032,0.00,VWS V12.08,2013-02-22 14:42:00,
2013-02-22 09:47:00,22.5,18.4,30.42,ENE,72,2.0,2.0,84,0.00,,OVC032,0.00,VWS V12.08,2013-02-22 14:47:00,
2013-02-22 09:52:00,23.1,18.7,30.42,ENE,72,1.0,2.0,83,0.00,,OVC032,0.00,VWS V12.08,2013-02-22 14:52:00,
2013-02-22 09:57:00,23.7,18.7,30.42,ENE,72,2.0,2.0,81,0.00,,OVC032,0.00,VWS V12.08,2013-02-22 14:57:00,
2013-02-22 10:02:00,24.0,18.7,30.41,ENE,72,0.0,0.0,80,0.00,,OVC032,0.00,VWS V12.08,2013-02-22 15:02:00,
2013-02-22 10:07:00,24.4,19.1,30.41,ENE,72,0.0,0.0,80,0.00,,OVC032,0.00,VWS V12.08,2013-02-22 15:07:00,
2013-02-22 10:12:00,25.0,19.4,30.41,ENE,72,2.0,2.0,79,0.00,,OVC032,0.00,VWS V12.08,2013-02-22 15:12:00,
2013-02-22 10:17:00,25.3,19.4,30.41,ENE,72,0.0,2.0,78,0.00,,OVC032,0.00,VWS V12.08,2013-02-22 15:17:00,
2013-02-22 10:22:00,25.8,19.6,30.41,ENE,72,2.0,2.0,77,0.00,,OVC032,0.00,VWS V12.08,2013-02-22 15:22:00,
2013-02-22 10:27:00,26.4,20.2,30.41,ENE,72,2.0,3.0,77,0.00,,OVC032,0.00,VWS V12.08,2013-02-22 15:27:00,
2013-02-22 10:32:00,26.7,19.9,30.41,ENE,72,1.0,2.0,75,0.00,,OVC032,0.00,VWS V12.08,2013-02-22 15:32:00,
2013-02-22 10:37:00,27.3,20.4,30.41,ENE,72,1.0,3.0,75,0.00,,OVC032,0.00,VWS V12.08,2013-02-22 15:37:00,
2013-02-22 10:42:00,28.0,20.5,30.41,ENE,72,2.0,3.0,73,0.00,,OVC030,0.00,VWS V12.08,2013-02-22 15:42:00,
2013-02-22 10:47:00,29.0,21.1,30.40,ENE,73,5.0,5.0,72,0.00,,OVC030,0.00,VWS V12.08,2013-02-22 15:47:00,
2013-02-22 10:52:00,29.2,20.3,30.40,East,96,5.0,5.0,69,0.00,,OVC030,0.00,VWS V12.08,2013-02-22 15:52:00,
2013-02-22 10:57:00,29.5,20.6,30.40,ENE,78,2.0,6.0,69,0.00,,OVC030,0.00,VWS V12.08,2013-02-22 15:57:00,
2013-02-22 11:02:00,29.6,20.4,30.40,ENE,78,8.0,8.0,68,0.00,,OVC030,0.00,VWS V12.08,2013-02-22 16:02:00,
2013-02-22 11:07:00,29.3,19.7,30.40,East,96,7.0,8.0,67,0.00,,OVC030,0.00,VWS V12.08,2013-02-22 16:07:00,
2013-02-22 11:12:00,29.6,20.0,30.40,ENE,78,5.0,10.0,67,0.00,,OVC030,0.00,VWS V12.08,2013-02-22 16:12:00,
2013-02-22 11:17:00,29.9,20.3,30.39,ENE,71,3.0,7.0,67,0.00,,OVC030,0.00,VWS V12.08,2013-02-22 16:17:00,
2013-02-22 11:22:00,29.9,19.9,30.39,ENE,76,5.0,7.0,66,0.00,,OVC030,0.00,VWS V12.08,2013-02-22 16:22:00,
2013-02-22 11:27:00,30.2,19.9,30.39,ENE,76,3.0,8.0,65,0.00,,OVC030,0.00,VWS V12.08,2013-02-22 16:27:00,
2013-02-22 11:32:00,30.1,19.4,30.38,ENE,68,2.0,9.0,64,0.00,,OVC030,0.00,VWS V12.08,2013-02-22 16:32:00,
2013-02-22 11:37:00,30.5,19.4,30.38,East,89,7.0,8.0,63,0.00,,OVC030,0.00,VWS V12.08,2013-02-22 16:37:00,
2013-02-22 11:42:00,31.2,19.7,30.38,ENE,66,4.0,9.0,62,0.00,,OVC030,0.00,VWS V12.08,2013-02-22 16:42:00,
2013-02-22 11:47:00,31.8,19.5,30.37,ENE,78,7.0,10.0,60,0.00,,OVC030,0.00,VWS V12.08,2013-02-22 16:47:00,
2013-02-22 11:52:00,31.8,19.1,30.37,ENE,68,5.0,7.0,59,0.00,,OVC030,0.00,VWS V12.08,2013-02-22 16:52:00,
2013-02-22 11:57:00,31.8,19.1,30.37,ENE,73,0.0,5.0,59,0.00,,OVC030,0.00,VWS V12.08,2013-02-22 16:57:00,
2013-02-22 12:02:00,32.3,20.0,30.37,ENE,64,3.0,3.0,60,0.00,,OVC030,0.00,VWS V12.08,2013-02-22 17:02:00,
2013-02-22 12:07:00,32.0,18.5,30.37,East,88,2.0,5.0,57,0.00,,OVC030,0.00,VWS V12.08,2013-02-22 17:07:00,
2013-02-22 12:12:00,32.0,19.3,30.37,ENE,78,3.0,6.0,59,0.00,,OVC030,0.00,VWS V12.08,2013-02-22 17:12:00,
2013-02-22 12:17:00,32.1,19.4,30.36,ENE,78,6.0,6.0,59,0.00,,OVC030,0.00,VWS V12.08,2013-02-22 17:17:00,
2013-02-22 12:22:00,32.3,19.2,30.36,East,80,3.0,6.0,58,0.00,,OVC030,0.00,VWS V12.08,2013-02-22 17:22:00,
2013-02-22 12:27:00,32.4,19.3,30.36,ENE,75,6.0,6.0,58,0.00,,OVC030,0.00,VWS V12.08,2013-02-22 17:27:00,
2013-02-22 12:32:00,32.4,19.3,30.36,East,88,2.0,6.0,58,0.00,,OVC030,0.00,VWS V12.08,2013-02-22 17:32:00,
2013-02-22 12:37:00,32.4,19.3,30.36,ENE,76,3.0,5.0,58,0.00,,OVC030,0.00,VWS V12.08,2013-02-22 17:37:00,
2013-02-22 12:42:00,32.3,19.2,30.36,East,83,5.0,5.0,58,0.00,,SCT030,0.00,VWS V12.08,2013-02-22 17:42:00,
2013-02-22 12:47:00,32.4,19.7,30.35,ENE,62,2.0,3.0,59,0.00,,SCT030,0.00,VWS V12.08,2013-02-22 17:47:00,
2013-02-22 12:52:00,32.1,19.4,30.35,ENE,76,2.0,6.0,59,0.00,,SCT030,0.00,VWS V12.08,2013-02-22 17:52:00,
2013-02-22 12:57:00,32.0,19.3,30.35,ENE,78,3.0,3.0,59,0.00,,SCT030,0.00,VWS V12.08,2013-02-22 17:57:00,
2013-02-22 13:02:00,32.1,19.0,30.34,East,80,3.0,4.0,58,0.00,,SCT030,0.00,VWS V12.08,2013-02-22 18:02:00,
2013-02-22 13:07:00,32.4,19.7,30.34,East,80,1.0,3.0,59,0.00,,SCT030,0.00,VWS V12.08,2013-02-22 18:07:00,
2013-02-22 13:12:00,33.2,19.6,30.34,East,85,2.0,3.0,57,0.00,,SCT030,0.00,VWS V12.08,2013-02-22 18:12:00,
2013-02-22 13:17:00,33.5,19.5,30.34,East,85,2.0,2.0,56,0.00,,SCT030,0.00,VWS V12.08,2013-02-22 18:17:00,
2013-02-22 13:22:00,33.6,19.6,30.34,East,83,0.0,0.0,56,0.00,,SCT030,0.00,VWS V12.08,2013-02-22 18:22:00,
2013-02-22 13:27:00,33.8,19.8,30.34,East,85,0.0,1.0,56,0.00,,SCT030,0.00,VWS V12.08,2013-02-22 18:27:00,
2013-02-22 13:32:00,34.3,20.2,30.33,East,85,2.0,2.0,56,0.00,,SCT030,0.00,VWS V12.08,2013-02-22 18:32:00,
2013-02-22 13:37:00,34.6,20.5,30.33,East,83,0.0,0.0,56,0.00,,SCT030,0.00,VWS V12.08,2013-02-22 18:37:00,
2013-02-22 13:42:00,34.6,20.1,30.33,East,83,0.0,0.0,55,0.00,,CLR,0.00,VWS V12.08,2013-02-22 18:42:00,
2013-02-22 13:47:00,34.5,20.4,30.33,South,174,0.0,2.0,56,0.00,,CLR,0.00,VWS V12.08,2013-02-22 18:47:00,
2013-02-22 13:52:00,34.0,20.8,30.33,ENE,72,0.0,2.0,58,0.00,,CLR,0.00,VWS V12.08,2013-02-22 18:52:00,
2013-02-22 13:57:00,33.9,20.7,30.33,SE,141,1.0,2.0,58,0.00,,CLR,0.00,VWS V12.08,2013-02-22 18:57:00,
2013-02-22 14:02:00,33.6,20.4,30.32,ESE,123,3.0,3.0,58,0.00,,CLR,0.00,VWS V12.08,2013-02-22 19:02:00,
2013-02-22 14:07:00,33.8,20.6,30.32,ENE,73,3.0,3.0,58,0.00,,CLR,0.00,VWS V12.08,2013-02-22 19:07:00,
2013-02-22 14:12:00,33.6,20.8,30.32,ENE,78,2.0,3.0,59,0.00,,CLR,0.00,VWS V12.08,2013-02-22 19:12:00,
2013-02-22 14:17:00,33.6,20.4,30.32,East,95,3.0,3.0,58,0.00,,CLR,0.00,VWS V12.08,2013-02-22 19:17:00,
2013-02-22 14:22:00,33.6,20.8,30.32,East,92,3.0,4.0,59,0.00,,CLR,0.00,VWS V12.08,2013-02-22 19:22:00,
2013-02-22 14:27:00,33.5,20.7,30.32,East,86,5.0,5.0,59,0.00,,CLR,0.00,VWS V12.08,2013-02-22 19:27:00,
2013-02-22 14:32:00,33.6,21.2,30.30,ENE,73,1.0,3.0,60,0.00,,CLR,0.00,VWS V12.08,2013-02-22 19:32:00,
2013-02-22 14:37:00,33.8,20.6,30.30,East,80,3.0,5.0,58,0.00,,CLR,0.00,VWS V12.08,2013-02-22 19:37:00,
2013-02-22 14:42:00,33.6,20.4,30.30,ENE,75,2.0,3.0,58,0.00,,CLR,0.00,VWS V12.08,2013-02-22 19:42:00,
2013-02-22 14:47:00,33.9,20.7,30.31,ENE,75,1.0,2.0,58,0.00,,CLR,0.00,VWS V12.08,2013-02-22 19:47:00,
2013-02-22 14:52:00,33.9,21.1,30.31,ENE,75,2.0,2.0,59,0.00,,CLR,0.00,VWS V12.08,2013-02-22 19:52:00,
2013-02-22 14:58:00,34.0,20.8,30.31,ENE,71,1.0,3.0,58,0.00,,CLR,0.00,VWS V12.08,2013-02-22 19:58:00,
2013-02-22 15:03:00,33.8,21.0,30.31,ENE,72,1.0,3.0,59,0.00,,CLR,0.00,VWS V12.08,2013-02-22 20:03:00,
2013-02-22 15:08:00,33.2,20.4,30.31,ENE,72,1.0,2.0,59,0.00,,CLR,0.00,VWS V12.08,2013-02-22 20:08:00,
2013-02-22 15:13:00,33.3,20.5,30.31,ENE,72,0.0,0.0,59,0.00,,CLR,0.00,VWS V12.08,2013-02-22 20:13:00,
2013-02-22 15:18:00,33.6,20.8,30.31,ENE,72,0.0,0.0,59,0.00,,CLR,0.00,VWS V12.08,2013-02-22 20:18:00,
2013-02-22 15:23:00,33.6,20.8,30.31,ENE,75,0.0,2.0,59,0.00,,CLR,0.00,VWS V12.08,2013-02-22 20:23:00,
2013-02-22 15:28:00,33.6,21.2,30.31,SW,219,3.0,4.0,60,0.00,,CLR,0.00,VWS V12.08,2013-02-22 20:28:00,
2013-02-22 15:33:00,33.6,20.8,30.31,SW,219,2.0,2.0,59,0.00,,CLR,0.00,VWS V12.08,2013-02-22 20:33:00,
2013-02-22 15:38:00,33.6,21.2,30.31,SW,219,2.0,2.0,60,0.00,,CLR,0.00,VWS V12.08,2013-02-22 20:38:00,
2013-02-22 15:43:00,33.5,21.1,30.31,SW,219,0.0,2.0,60,0.00,,CLR,0.00,VWS V12.08,2013-02-22 20:43:00,
2013-02-22 15:48:00,33.5,20.7,30.31,SW,219,1.0,2.0,59,0.00,,CLR,0.00,VWS V12.08,2013-02-22 20:48:00,
2013-02-22 15:53:00,33.6,20.8,30.31,SW,219,1.0,2.0,59,0.00,,CLR,0.00,VWS V12.08,2013-02-22 20:53:00,
2013-02-22 15:58:00,33.5,20.3,30.31,SW,219,0.0,2.0,58,0.00,,CLR,0.00,VWS V12.08,2013-02-22 20:58:00,
2013-02-22 16:03:00,33.6,20.0,30.31,SW,219,0.0,0.0,57,0.00,,CLR,0.00,VWS V12.08,2013-02-22 21:03:00,
2013-02-22 16:08:00,33.6,20.4,30.31,SW,219,0.0,0.0,58,0.00,,CLR,0.00,VWS V12.08,2013-02-22 21:08:00,
2013-02-22 16:13:00,33.8,20.6,30.30,SW,217,0.0,0.0,58,0.00,,CLR,0.00,VWS V12.08,2013-02-22 21:13:00,
2013-02-22 16:18:00,33.6,20.4,30.30,SW,219,0.0,0.0,58,0.00,,CLR,0.00,VWS V12.08,2013-02-22 21:18:00,
2013-02-22 16:23:00,33.8,20.6,30.30,SW,219,0.0,0.0,58,0.00,,CLR,0.00,VWS V12.08,2013-02-22 21:23:00,
2013-02-22 16:28:00,33.6,20.4,30.29,SW,219,0.0,0.0,58,0.00,,CLR,0.00,VWS V12.08,2013-02-22 21:28:00,
2013-02-22 16:33:00,33.5,21.5,30.29,SW,219,0.0,0.0,61,0.00,,CLR,0.00,VWS V12.08,2013-02-22 21:33:00,
2013-02-22 16:38:00,33.5,21.9,30.29,SW,219,0.0,0.0,62,0.00,,CLR,0.00,VWS V12.08,2013-02-22 21:38:00,
2013-02-22 16:43:00,33.3,22.5,30.28,SW,219,0.0,0.0,64,0.00,,CLR,0.00,VWS V12.08,2013-02-22 21:43:00,
2013-02-22 16:48:00,33.2,23.1,30.28,SW,219,0.0,0.0,66,0.00,,CLR,0.00,VWS V12.08,2013-02-22 21:48:00,
2013-02-22 16:53:00,32.7,24.4,30.28,SW,219,0.0,0.0,71,0.00,,CLR,0.00,VWS V12.08,2013-02-22 21:53:00,
2013-02-22 16:58:00,31.8,23.8,30.28,SW,219,1.0,1.0,72,0.00,,CLR,0.00,VWS V12.08,2013-02-22 21:58:00,
2013-02-22 17:03:00,30.9,23.6,30.28,SW,219,0.0,0.0,74,0.00,,CLR,0.00,VWS V12.08,2013-02-22 22:03:00,
2013-02-22 17:08:00,30.4,23.4,30.28,SW,219,0.0,0.0,75,0.00,,CLR,0.00,VWS V12.08,2013-02-22 22:08:00,
2013-02-22 17:13:00,29.9,23.3,30.29,SW,219,0.0,0.0,76,0.00,,CLR,0.00,VWS V12.08,2013-02-22 22:13:00,
2013-02-22 17:18:00,29.5,23.2,30.29,SW,219,0.0,0.0,77,0.00,,CLR,0.00,VWS V12.08,2013-02-22 22:18:00,
2013-02-22 17:23:00,29.0,23.0,30.29,SW,219,0.0,0.0,78,0.00,,CLR,0.00,VWS V12.08,2013-02-22 22:23:00,
2013-02-22 17:28:00,28.6,23.2,30.29,SW,219,0.0,0.0,80,0.00,,CLR,0.00,VWS V12.08,2013-02-22 22:28:00,
2013-02-22 17:33:00,28.3,23.2,30.29,SW,219,0.0,0.0,81,0.00,,CLR,0.00,VWS V12.08,2013-02-22 22:33:00,
2013-02-22 17:38:00,28.0,22.9,30.29,SW,219,0.0,0.0,81,0.00,,CLR,0.00,VWS V12.08,2013-02-22 22:38:00,
2013-02-22 17:43:00,27.7,22.9,30.30,SW,219,0.0,0.0,82,0.00,,CLR,0.00,VWS V12.08,2013-02-22 22:43:00,
2013-02-22 17:48:00,27.5,22.7,30.30,SW,219,0.0,0.0,82,0.00,,CLR,0.00,VWS V12.08,2013-02-22 22:48:00,
2013-02-22 17:53:00,27.3,22.8,30.30,SW,219,0.0,0.0,83,0.00,,CLR,0.00,VWS V12.08,2013-02-22 22:53:00,
2013-02-22 17:58:00,27.1,22.6,30.30,SW,219,0.0,0.0,83,0.00,,CLR,0.00,VWS V12.08,2013-02-22 22:58:00,
2013-02-22 18:03:00,26.8,22.6,30.30,SW,219,0.0,0.0,84,0.00,,CLR,0.00,VWS V12.08,2013-02-22 23:03:00,
2013-02-22 18:08:00,26.7,22.8,30.30,SW,219,0.0,0.0,85,0.00,,CLR,0.00,VWS V12.08,2013-02-22 23:08:00,
2013-02-22 18:13:00,26.4,22.5,30.30,SW,219,0.0,0.0,85,0.00,,CLR,0.00,VWS V12.08,2013-02-22 23:13:00,
2013-02-22 18:18:00,26.1,22.5,30.30,SW,219,0.0,0.0,86,0.00,,CLR,0.00,VWS V12.08,2013-02-22 23:18:00,
2013-02-22 18:23:00,25.9,22.3,30.30,SW,219,0.0,0.0,86,0.00,,CLR,0.00,VWS V12.08,2013-02-22 23:23:00,
2013-02-22 18:28:00,25.6,22.3,30.30,SW,219,0.0,0.0,87,0.00,,CLR,0.00,VWS V12.08,2013-02-22 23:28:00,
2013-02-22 18:33:00,25.3,22.0,30.30,SW,219,0.0,0.0,87,0.00,,CLR,0.00,VWS V12.08,2013-02-22 23:33:00,
2013-02-22 18:38:00,25.2,21.9,30.30,SW,219,0.0,0.0,87,0.00,,CLR,0.00,VWS V12.08,2013-02-22 23:38:00,
2013-02-22 18:43:00,25.0,22.0,30.30,SW,219,0.0,0.0,88,0.00,,CLR,0.00,VWS V12.08,2013-02-22 23:43:00,
2013-02-22 18:48:00,24.9,21.9,30.30,SW,219,0.0,0.0,88,0.00,,CLR,0.00,VWS V12.08,2013-02-22 23:48:00,
2013-02-22 18:53:00,24.7,21.7,30.30,SW,219,0.0,0.0,88,0.00,,CLR,0.00,VWS V12.08,2013-02-22 23:53:00,
2013-02-22 18:58:00,24.7,21.9,30.31,SW,219,0.0,0.0,89,0.00,,CLR,0.00,VWS V12.08,2013-02-22 23:58:00,
2013-02-22 19:03:00,24.7,22.2,30.31,SW,219,0.0,0.0,90,0.00,,CLR,0.00,VWS V12.08,2013-02-23 00:03:00,
2013-02-22 19:08:00,24.7,22.2,30.31,SW,219,0.0,0.0,90,0.00,,CLR,0.00,VWS V12.08,2013-02-23 00:08:00,
2013-02-22 19:13:00,24.7,22.2,30.31,SW,219,0.0,0.0,90,0.00,,CLR,0.00,VWS V12.08,2013-02-23 00:13:00,
2013-02-22 19:18:00,24.7,22.2,30.31,SW,219,0.0,0.0,90,0.00,,CLR,0.00,VWS V12.08,2013-02-23 00:18:00,
2013-02-22 19:23:00,24.7,22.2,30.31,SW,219,0.0,0.0,90,0.00,,CLR,0.00,VWS V12.08,2013-02-23 00:23:00,
2013-02-22 19:28:00,24.7,22.2,30.32,SW,219,0.0,0.0,90,0.00,,CLR,0.00,VWS V12.08,2013-02-23 00:28:00,
2013-02-22 19:33:00,24.7,22.2,30.32,SW,219,0.0,0.0,90,0.00,,CLR,0.00,VWS V12.08,2013-02-23 00:33:00,
2013-02-22 19:38:00,24.7,22.2,30.32,SW,219,0.0,0.0,90,0.00,,CLR,0.00,VWS V12.08,2013-02-23 00:38:00,
2013-02-22 19:43:00,24.6,22.1,30.31,SW,219,0.0,0.0,90,0.00,,CLR,0.00,VWS V12.08,2013-02-23 00:43:00,
2013-02-22 19:48:00,24.6,22.4,30.31,SW,219,0.0,0.0,91,0.00,,CLR,0.00,VWS V12.08,2013-02-23 00:48:00,
2013-02-22 19:53:00,24.4,21.9,30.31,SW,219,0.0,0.0,90,0.00,,CLR,0.00,VWS V12.08,2013-02-23 00:53:00,
2013-02-22 19:59:00,24.3,21.8,30.30,SW,219,0.0,0.0,90,0.00,,CLR,0.00,VWS V12.08,2013-02-23 00:59:00,
2013-02-22 20:04:00,24.3,21.8,30.30,SW,219,0.0,1.0,90,0.00,,CLR,0.00,VWS V12.08,2013-02-23 01:04:00,
2013-02-22 20:09:00,24.3,21.8,30.30,SW,219,0.0,0.0,90,0.00,,CLR,0.00,VWS V12.08,2013-02-23 01:09:00,
2013-02-22 20:14:00,24.3,21.8,30.30,SW,219,0.0,0.0,90,0.00,,CLR,0.00,VWS V12.08,2013-02-23 01:14:00,
2013-02-22 20:19:00,24.4,21.9,30.30,SW,219,0.0,0.0,90,0.00,,CLR,0.00,VWS V12.08,2013-02-23 01:19:00,
2013-02-22 20:24:00,24.4,21.9,30.30,SW,219,0.0,0.0,90,0.00,,CLR,0.00,VWS V12.08,2013-02-23 01:24:00,
2013-02-22 20:29:00,24.6,22.1,30.30,SW,219,0.0,0.0,90,0.00,,CLR,0.00,VWS V12.08,2013-02-23 01:29:00,
2013-02-22 20:34:00,24.6,22.1,30.30,SW,219,0.0,0.0,90,0.00,,CLR,0.00,VWS V12.08,2013-02-23 01:34:00,
2013-02-22 20:39:00,24.6,22.1,30.30,SW,219,0.0,0.0,90,0.00,,CLR,0.00,VWS V12.08,2013-02-23 01:39:00,
2013-02-22 20:44:00,24.6,22.1,30.30,SW,219,0.0,0.0,90,0.00,,CLR,0.00,VWS V12.08,2013-02-23 01:44:00,
2013-02-22 20:49:00,24.6,22.1,30.30,SW,219,0.0,0.0,90,0.00,,CLR,0.00,VWS V12.08,2013-02-23 01:49:00,
2013-02-22 20:54:00,24.6,22.1,30.30,SW,219,0.0,1.0,90,0.00,,CLR,0.00,VWS V12.08,2013-02-23 01:54:00,
2013-02-22 20:59:00,24.6,22.1,30.30,SW,219,0.0,0.0,90,0.00,,CLR,0.00,VWS V12.08,2013-02-23 01:59:00,
2013-02-22 21:04:00,24.6,22.1,30.30,SW,219,0.0,0.0,90,0.00,,CLR,0.00,VWS V12.08,2013-02-23 02:04:00,
2013-02-22 21:09:00,24.6,22.1,30.30,SW,219,0.0,0.0,90,0.00,,CLR,0.00,VWS V12.08,2013-02-23 02:09:00,
2013-02-22 21:14:00,24.4,21.9,30.29,SW,219,0.0,0.0,90,0.00,,CLR,0.00,VWS V12.08,2013-02-23 02:14:00,
2013-02-22 21:19:00,24.4,21.9,30.29,SW,219,0.0,0.0,90,0.00,,CLR,0.00,VWS V12.08,2013-02-23 02:19:00,
2013-02-22 21:24:00,24.4,21.9,30.29,SW,219,0.0,0.0,90,0.00,,CLR,0.00,VWS V12.08,2013-02-23 02:24:00,
2013-02-22 21:29:00,24.4,21.9,30.29,SW,217,0.0,0.0,90,0.00,,CLR,0.00,VWS V12.08,2013-02-23 02:29:00,
2013-02-22 21:34:00,24.4,21.9,30.29,SW,219,0.0,0.0,90,0.00,,CLR,0.00,VWS V12.08,2013-02-23 02:34:00,
2013-02-22 21:39:00,24.4,22.2,30.29,SW,219,0.0,0.0,91,0.00,,CLR,0.00,VWS V12.08,2013-02-23 02:39:00,
2013-02-22 21:44:00,24.3,22.1,30.28,SW,219,0.0,0.0,91,0.00,,CLR,0.00,VWS V12.08,2013-02-23 02:44:00,
2013-02-22 21:49:00,24.3,22.1,30.28,SW,219,0.0,0.0,91,0.00,,CLR,0.00,VWS V12.08,2013-02-23 02:49:00,
2013-02-22 21:54:00,24.3,22.1,30.28,SW,219,0.0,0.0,91,0.00,,CLR,0.00,VWS V12.08,2013-02-23 02:54:00,
2013-02-22 21:59:00,24.3,22.3,30.28,SW,219,0.0,0.0,92,0.00,,CLR,0.00,VWS V12.08,2013-02-23 02:59:00,
2013-02-22 22:04:00,24.3,22.3,30.28,SW,219,0.0,0.0,92,0.00,,CLR,0.00,VWS V12.08,2013-02-23 03:04:00,
2013-02-22 22:09:00,24.3,22.3,30.28,SW,219,0.0,0.0,92,0.00,,CLR,0.00,VWS V12.08,2013-02-23 03:09:00,
2013-02-22 22:14:00,24.3,22.3,30.28,SW,219,0.0,0.0,92,0.00,,CLR,0.00,VWS V12.08,2013-02-23 03:14:00,
2013-02-22 22:19:00,24.3,22.3,30.28,SW,219,0.0,0.0,92,0.00,,CLR,0.00,VWS V12.08,2013-02-23 03:19:00,
2013-02-22 22:24:00,24.3,22.3,30.28,SW,219,0.0,0.0,92,0.00,,CLR,0.00,VWS V12.08,2013-02-23 03:24:00,
2013-02-22 22:29:00,24.0,22.0,30.28,SW,219,0.0,0.0,92,0.00,,CLR,0.00,VWS V12.08,2013-02-23 03:29:00,
2013-02-22 22:34:00,23.8,21.8,30.28,SW,219,0.0,0.0,92,0.00,,CLR,0.00,VWS V12.08,2013-02-23 03:34:00,
2013-02-22 22:39:00,23.8,21.8,30.28,SW,219,0.0,0.0,92,0.00,,CLR,0.00,VWS V12.08,2013-02-23 03:39:00,
2013-02-22 22:44:00,23.8,22.1,30.27,SW,219,0.0,0.0,93,0.00,,FEW120,0.00,VWS V12.08,2013-02-23 03:44:00,
2013-02-22 22:49:00,23.8,22.1,30.27,SW,219,0.0,0.0,93,0.00,,FEW120,0.00,VWS V12.08,2013-02-23 03:49:00,
2013-02-22 22:54:00,23.8,22.1,30.27,SW,219,0.0,2.0,93,0.00,,FEW120,0.00,VWS V12.08,2013-02-23 03:54:00,
2013-02-22 22:59:00,23.8,22.1,30.27,SW,219,0.0,2.0,93,0.00,,FEW120,0.00,VWS V12.08,2013-02-23 03:59:00,
2013-02-22 23:04:00,23.8,22.1,30.27,SW,219,0.0,1.0,93,0.00,,FEW120,0.00,VWS V12.08,2013-02-23 04:04:00,
2013-02-22 23:09:00,23.8,22.1,30.27,SW,219,0.0,1.0,93,0.00,,FEW120,0.00,VWS V12.08,2013-02-23 04:09:00,
2013-02-22 23:14:00,24.0,22.3,30.27,SW,219,0.0,0.0,93,0.00,,FEW120,0.00,VWS V12.08,2013-02-23 04:14:00,
2013-02-22 23:19:00,24.0,22.3,30.27,SW,219,0.0,0.0,93,0.00,,FEW120,0.00,VWS V12.08,2013-02-23 04:19:00,
2013-02-22 23:24:00,24.1,22.4,30.27,SW,219,0.0,0.0,93,0.00,,FEW120,0.00,VWS V12.08,2013-02-23 04:24:00,
2013-02-22 23:29:00,24.3,22.6,30.28,SW,219,0.0,0.0,93,0.00,,FEW120,0.00,VWS V12.08,2013-02-23 04:29:00,
2013-02-22 23:34:00,24.3,22.6,30.28,SW,219,0.0,0.0,93,0.00,,FEW120,0.00,VWS V12.08,2013-02-23 04:34:00,
2013-02-22 23:39:00,24.3,22.6,30.28,SW,219,0.0,0.0,93,0.00,,FEW120,0.00,VWS V12.08,2013-02-23 04:39:00,
2013-02-22 23:44:00,24.3,22.6,30.27,SW,219,0.0,0.0,93,0.00,,CLR,0.00,VWS V12.08,2013-02-23 04:44:00,
2013-02-22 23:49:00,24.3,22.6,30.27,SW,219,0.0,0.0,93,0.00,,CLR,0.00,VWS V12.08,2013-02-23 04:49:00,
2013-02-22 23:54:00,24.3,22.6,30.27,SW,219,0.0,0.0,93,0.00,,CLR,0.00,VWS V12.08,2013-02-23 04:54:00,
2013-02-22 23:59:00,24.1,22.4,30.27,SW,219,0.0,0.0,93,0.00,,CLR,0.00,VWS V12.08,2013-02-23 04:59:00,